Showing default

CONNECTA IOT-7, 62715

Orbit data source: Space-Track

CONNECTA IOT-7, 62715 is a payload satellite owned by Plan-S (TR) in SSO that was launched on Tue, 14 Jan 2025 UTC via an FALCON 9 launch vehicle from the Air Force Western Test Range (AFWTR). Payload-class satellites include a variety of spacecraft equipped with specific instruments for various scientific and technological missions. These include communications satellites like Starlink; space stations such as the ISS; scientific satellites like the Hubble; Earth observation satellites from companies like Planet Labs, Umbra, and HawkEye 360; GPS; miniature CubeSats for education and research; and military/defense satellites.

Loading next visibility...
Identifier
62715, 2025-009DL
Orbit
SSO
Country
Flag of UnknownUnknown / TURK
Related business
Manufacturer
Plan-S
Mission
Operational Commercial Communications
Bus & Motor
CUBESAT 6U, Unknown motor
Mass
10 kg wet, 10 kg dry
Launch date (UTC)
2025-01-14 (1 year ago)
Launch vehicle
FALCON 9
Launch site
Air Force Western Test Range (AFWTR)
Object type
Payload
Rocket body
Debris
Shape & HBR
Box, 2.2 m
Radar Cross Section
0.080 m², Medium (>0.1 m² and < 1m²)

Expand to show TLE details & history
Last TLE update: 16 hours ago

TLE from 16 hours ago
0 CONNECTA IOT-7
1 62715U 25009DL  26035.15924160  .00001675  00000-0  16296-3 0  9997
2 62715  97.7186 116.3459 0000083  55.7084 304.4143 14.93860933 57489
Epoch: 2026-02-04T03:49Z
TLE epoch observation values (Epoch: 2026-02-04T03:49:18.474Z)
Latitude
-0.0001°
Longitude
-75.31089°
Altitude
588.924 km
Speed
7.566 km/s
True Right ascension
07h 45m 23s
True Declination
0° 00' 00"
Sunlit
Object was in full shadow at epoch
Visualization orbit readout
Latitude
Unknown
Longitude
Unknown
Altitude
Unknown
Speed
Unknown
Apparent Right ascension
Unknown
Apparent Declination
Unknown
Sunlit
N/A
Visualization observer readout
Local Sidereal Time
21:41:13
Azimuth
Unknown
Elevation
Unknown
Doppler factor
Unknown
Orbital elements
Apogee altitude
582.983 km
Perigee altitude
582.867 km
Semi-major axis
6,961.062 km
Eccentricity
0.00001
Inclination
97.7186°
RAAN
116.3459°
Arg. of periapsis
55.7084°
True anomaly
304.41352°
Mean anomaly
304.4143°
Eccentric anomaly
304.41391°
Mean motion
3.73706 °/min
Orbital period
96.33 mins
BSTAR
0.00016296
Loading maneuver chart data...
Computing Atmospheric mass density...
Loading historical data...
Loading historical data...
Loading historical data...
Loading historical data...
Loading historical data...
Loading historical data...
Loading historical data...

Documentation

Showing up to 5 results
|